Terminal Aerodrome Forecast
Issued by NWS Spokane, WA

Home | Current Version | Previous Version | Text Only | Print | Product List | Glossary On
Versions: 1 2 3 4 5 6 7 8 9 10 11 12 13 14 15 16 17 18 19 20 21 22 23 24 25 26 27 28 29 30
393
FTUS46 KOTX 071739
TAFEAT
TAF
KEAT 071739Z 0718/0818 VRB03KT P6SM BKN100 BKN200
     FM080200 VRB02KT P6SM FEW250
     FM081100 30003KT 6SM BR VCFG FEW001 SCT250=

USA.gov is the U.S. government's official web portal to all federal, state and local government web resources and services.